Location: 81360 Arifat, France
(43.7204°N, 2.3408°E)
Time: 09:43:24
(UTC+02:00)

GHALIB - Pass Details

Date: 31 May 2022
Orbit: 510 x 523 km, 97.6° (Epoch: 02 July)

Event Time Altitude Azimuth Distance (km) Brightness Sun altitude
Exits shadow 03:50:33 48° 232° (SW) 691 ? -18.6°
Maximum altitude 03:51:01 51° 260° (W) 659 ? -18.6°
Drops below altitude 10° 03:54:45 10° 338° (NNW) 1,762 ? -18.3°
Sets 03:56:54 0° 343° (NNW) 2,652 ? -18.1°
